STARLINK-11173, 60192

Orbit data source: Space-Track

STARLINK-11173, 60192 is a payload satellite owned by SpaceX/Seattle (US) in LEO that was launched on Wed, 03 Jul 2024 UTC via an FALCON 9 launch vehicle from the Air Force Eastern Test Range (AFETR). Payloads include a variety of satellites, spacecraft, and rockets equipped with specific instruments for various scientific and technological missions. These include communications satellites like Starlink; space stations such as the ISS; scientific satellites like the Hubble; Earth observation satellites from companies like Planet Labs, Umbra, and HawkEye 360; GPS; miniature CubeSats for education and research; and military/defense satellites.

Loading next visibility...
STARLINK-11173 details
Identifier
60192, 2024-124K
Orbit
LEO
Last TLE update15 hours ago
Origin
Flag of USSpaceX/Seattle (US)
ManufacturerSpaceX/Seattle
MissionOperational spacecraft
Bus & MotorSTARLINK V2M, Unknown motor
Mass730 kg wet, ~700 kg dry
Launch date (UTC)
2024-07-03 (6 months ago)
Launch vehicle
FALCON 9
Launch site
Air Force Eastern Test Range (AFETR)
Object type
Payload
Rocket body
Debris
Shape & HBRUnknown
Radar Cross SectionLarge (>1 m²)

Expand to show TLE details & history

TLE from 15 hours ago
0 STARLINK-11173
1 60192U 24124K   24355.92419651 -.00004874  00000-0 -35412-4 0  9991
2 60192  53.1577 189.0047 0001235 112.2898 247.8251 15.69697959 26833
Epoch: 2024-12-20T22:10Z
Definitive object data (Epoch: 2024-12-20T22:10:50.578Z)
Latitude-0.00001°
Longitude126.31122°
Altitude360.99 km
Speed7.694 km/s
True Right ascension12h 36m 01s
True Declination0° 00' 00"
Sunlit
Object was in daylight at TLE epoch
Visualization TLE readout
Latitude-48.56927°
Longitude65.64731°
Altitude377.271 km
Speed7.683 km/s
Apparent Right ascension04h 02m 49s
Apparent Declination-64° 37' 56"
Sunlit
Object is in daylight
Visualization observer readout
Local Sidereal Time12:11:58
Azimuth213.549° SW
Elevation-49.053°
Doppler factor1
Orbital elements
Apogee altitude360.854 km
Perigee altitude359.19 km
Semi-major axis6,738.159 km
Eccentricity0.0001235
Inclination53.1577°
RAAN189.0047°
Arg. of periapsis112.2898°
True anomaly247.812°
Mean anomaly247.8251°
Eccentric anomaly247.81855°
Mean motion3.92402 °/min
BSTAR-0.000035412
Orbital period91.74 mins
Loading maneuver chart data...
Loading historical data...
Loading historical data...
Loading historical data...
Loading historical data...
Loading historical data...
Loading historical data...
Loading historical data...

STARLINK-11173 Visibility forecast

Observer location: undefined°, undefined

Span
Click to sort rows by Start time (UTC) header in descending order
Start Az.
Max El. time (UTC)
Max El. Az.
Max El.
End time (UTC)
End Az.
4 mins2024-12-21 15:09:03.481Z190.4° SSW2024-12-21 15:11:03.481Z145.249° SSE23.66°2024-12-21 15:13:03.481Z83.901° E
|